Tracking 19170 objects as of 23-May-2018
HD Live streaming from Space Station
objects crossing your sky now

ECHOSTAR 1

Track ECHOSTAR 1 now!
ECHOSTAR 1 is classified as:


NORAD ID: 23754
Int'l Code: 1995-073A
Perigee: 36,160.9 km
Apogee: 36,184.7 km
Inclination: 1.5 °
Period: 1,455.5 minutes
Semi major axis: 42543 km
RCS: 30.9641 m2 (large)
Launch date: December 28, 1995
Source: United States (US)
Launch site: Xichang Space Center, China (XSC)

Western United States to Central/Mountain region; 16 Ku-band transponders
aabbcc
Your satellite tracking list
Your tracking list is empty




NASA's NSSDC Master Catalog

Two Line Element Set (TLE):
1 23754U 95073A   18143.13007800 -.00000247  00000-0  00000+0 0  9994
2 23754   1.5350  88.3597 0002801 281.4494 256.5282  0.98934697 81879
Source of the keplerian elements: AFSPC